FW6990 Weather Reports


time (UTC)temp
C
wind
direction
speed
KPH
gust
KPH
rain 1hr
cm
rain 24hr
cm
rain mn
cm
humidity
%
barometer
mb
20260505101951 16 203 0.0 3.2 0.00 0.00 0.00 69 1012.4
20260505101444 16 157 0.0 3.2 0.00 0.00 0.00 68 1012.2
20260505100940 16 258 3.2 4.8 0.00 0.00 0.00 68 1012.3
20260505100438 16 212 0.0 3.2 0.00 0.00 0.00 68 1012.3
20260505095933 16 230 0.0 3.2 0.00 0.00 0.00 67 1012.2
20260505095430 17 152 1.6 4.8 0.00 0.00 0.00 67 1012.2
20260505094926 17 213 3.2 4.8 0.00 0.00 0.00 66 1012.2
20260505094424 17 228 1.6 4.8 0.00 0.00 0.00 66 1012.1
20260505093919 17 166 0.0 4.8 0.00 0.00 0.00 66 1012.1
20260505093416 17 229 3.2 4.8 0.00 0.00 0.00 65 1012.4
20260505092914 17 146 1.6 4.8 0.00 0.00 0.00 65 1012.2
20260505092412 17 160 0.0 3.2 0.00 0.00 0.00 64 1012.1
20260505091909 17 43 0.0 3.2 0.00 0.00 0.00 63 1012.1
20260505091406 17 147 0.0 4.8 0.00 0.00 0.00 63 1012.1
20260505090904 17 176 3.2 6.4 0.00 0.00 0.00 65 1012.2
20260505090402 17 225 1.6 6.4 0.00 0.00 0.00 65 1011.9
20260505085859 17 174 3.2 6.4 0.00 0.00 0.00 65 1012.0
20260505085357 17 246 4.8 8.0 0.00 0.00 0.00 65 1012.0
20260505084855 17 212 3.2 6.4 0.00 0.00 0.00 64 1011.7
20260505084353 17 180 0.0 4.8 0.00 0.00 0.00 64 1011.5
20260505083850 17 214 1.6 6.4 0.00 0.00 0.00 65 1011.9
20260505083348 16 211 1.6 4.8 0.00 0.00 0.00 66 1011.9
20260505082844 16 148 1.6 3.2 0.00 0.00 0.00 66 1011.9
20260505082340 16 180 0.0 4.8 0.00 0.00 0.00 67 1012.1
20260505081837 16 226 0.0 3.2 0.00 0.00 0.00 67 1012.0
20260505081333 16 181 1.6 4.8 0.00 0.00 0.00 67 1012.2
20260505080830 16 263 0.0 3.2 0.00 0.00 0.00 67 1012.2
20260505080326 16 212 3.2 4.8 0.00 0.00 0.00 67 1012.0
20260505075822 16 277 3.2 4.8 0.00 0.00 0.00 67 1012.1
20260505075319 16 192 0.0 3.2 0.00 0.00 0.00 67 1012.0
20260505074816 16 201 1.6 4.8 0.00 0.00 0.00 67 1012.0
20260505074313 16 251 1.6 3.2 0.00 0.00 0.00 67 1012.1
20260505073811 16 166 1.6 3.2 0.00 0.00 0.00 66 1012.2
20260505073309 16 128 1.6 3.2 0.00 0.00 0.00 66 1012.2
20260505072805 16 238 0.0 8.0 0.00 0.00 0.00 66 1011.9
20260505072301 16 188 0.0 3.2 0.00 0.00 0.00 67 1012.0
20260505071757 16 222 3.2 4.8 0.00 0.00 0.00 67 1012.0
20260505071254 16 198 0.0 3.2 0.00 0.00 0.00 67 1011.9
20260505070752 16 187 0.0 3.2 0.00 0.00 0.00 68 1011.9
20260505070248 16 168 0.0 3.2 0.00 0.00 0.00 68 1011.8
20260505065743 16 180 0.0 3.2 0.00 0.00 0.00 67 1011.9
20260505065240 16 219 0.0 4.8 0.00 0.00 0.00 67 1012.0
20260505064737 16 228 3.2 3.2 0.00 0.00 0.00 66 1011.8
20260505064235 16 189 0.0 3.2 0.00 0.00 0.00 66 1011.9
20260505063732 16 268 3.2 3.2 0.00 0.00 0.00 66 1011.9
20260505063228 16 185 0.0 3.2 0.00 0.00 0.00 65 1011.9
20260505062725 16 113 0.0 4.8 0.00 0.00 0.00 64 1012.0
20260505062223 16 209 0.0 4.8 0.00 0.00 0.00 64 1011.8
20260505061719 16 178 1.6 3.2 0.00 0.00 0.00 63 1012.0
20260505061217 16 25 3.2 3.2 0.00 0.00 0.00 63 1012.1
20260505060715 16 275 3.2 3.2 0.00 0.00 0.00 63 1012.0
20260505060211 16 163 1.6 3.2 0.00 0.00 0.00 64 1011.9
20260505055707 16 160 0.0 3.2 0.00 0.00 0.00 64 1012.2
20260505055203 16 145 0.0 3.2 0.00 0.00 0.00 63 1012.1
20260505054701 16 147 0.0 1.6 0.00 0.00 0.00 63 1012.2
20260505054159 16 205 0.0 3.2 0.00 0.00 0.00 62 1012.1
20260505053656 16 208 0.0 3.2 0.00 0.00 0.00 62 1012.1
20260505053153 16 154 0.0 3.2 0.00 0.00 0.00 61 1012.2
20260505052649 16 135 0.0 1.6 0.00 0.00 0.00 61 1012.1
20260505052147 17 175 3.2 3.2 0.00 0.00 0.00 60 1012.0
20260505051643 17 227 1.6 3.2 0.00 0.00 0.00 60 1012.1
20260505051142 17 244 3.2 3.2 0.00 0.00 0.00 60 1012.1
20260505050639 16 226 3.2 3.2 0.00 0.00 0.00 61 1012.1
20260505050138 16 47 1.6 3.2 0.00 0.00 0.00 61 1012.1
20260505041607 16 89 0.0 1.6 0.00 0.00 0.00 61 1012.0
20260505041104 16 155 3.2 4.8 0.00 0.00 0.00 60 1012.1
20260505040602 16 63 0.0 4.8 0.00 0.00 0.00 60 1012.1
20260505040059 17 210 0.0 3.2 0.00 0.00 0.00 59 1012.1
20260505035555 16 191 1.6 4.8 0.00 0.00 0.00 59 1012.2
20260505035051 16 84 3.2 4.8 0.00 0.00 0.00 60 1012.2
20260505034548 16 155 0.0 3.2 0.00 0.00 0.00 61 1012.3
20260505034045 16 94 0.0 3.2 0.00 0.00 0.00 61 1012.2
20260505033542 16 181 1.6 3.2 0.00 0.00 0.00 61 1011.9
20260505033040 16 210 1.6 3.2 0.00 0.00 0.00 60 1012.0
20260505032538 17 144 3.2 4.8 0.00 0.00 0.00 60 1012.0
20260505032034 16 187 0.0 3.2 0.00 0.00 0.00 60 1012.1
20260505031531 16 172 0.0 3.2 0.00 0.00 0.00 60 1012.0
20260505031027 16 103 1.6 3.2 0.00 0.00 0.00 60 1012.0
20260505030525 16 153 1.6 3.2 0.00 0.00 0.00 60 1012.2
20260505030021 17 160 1.6 3.2 0.00 0.00 0.00 59 1012.3
20260505025516 17 124 0.0 1.6 0.00 0.00 0.00 58 1012.2
20260505025016 16 242 3.2 6.4 0.00 0.00 0.00 58 1012.2
20260505024512 16 174 1.6 3.2 0.00 0.00 0.00 57 1012.3
20260505024009 16 150 0.0 3.2 0.00 0.00 0.00 57 1012.4
20260505023506 16 143 1.6 4.8 0.00 0.00 0.00 55 1012.4
20260505023004 16 144 3.2 3.2 0.00 0.00 0.00 55 1012.4
20260505022501 16 21 0.0 3.2 0.00 0.00 0.00 53 1012.2
20260505021958 17 160 3.2 3.2 0.00 0.00 0.00 52 1012.4
20260505021455 17 204 3.2 3.2 0.00 0.00 0.00 51 1012.3
20260505020950 17 212 1.6 3.2 0.00 0.00 0.00 50 1012.2
20260505020445 17 44 0.0 3.2 0.00 0.00 0.00 49 1012.3
20260505015943 17 108 3.2 3.2 0.00 0.00 0.00 50 1012.4
20260505015440 17 132 1.6 4.8 0.00 0.00 0.00 48 1012.3
20260505014937 17 173 0.0 3.2 0.00 0.00 0.00 47 1012.4
20260505014434 17 119 1.6 3.2 0.00 0.00 0.00 47 1012.3
20260505013931 17 197 3.2 3.2 0.00 0.00 0.00 47 1012.4
20260505013428 17 139 0.0 3.2 0.00 0.00 0.00 47 1012.3
20260505012926 17 163 0.0 3.2 0.00 0.00 0.00 46 1012.2
20260505012424 17 139 1.6 3.2 0.00 0.00 0.00 46 1012.2
20260505011920 17 200 0.0 3.2 0.00 0.00 0.00 46 1012.2
20260505011416 17 123 3.2 3.2 0.00 0.00 0.00 46 1012.1
20260505010913 17 303 0.0 3.2 0.00 0.00 0.00 45 1012.2
20260505010409 18 137 0.0 3.2 0.00 0.00 0.00 45 1012.1
20260505005904 18 135 0.0 1.6 0.00 0.00 0.00 45 1012.2
20260505005402 18 182 1.6 3.2 0.00 0.00 0.00 44 1011.9
20260505004859 18 160 0.0 4.8 0.00 0.00 0.00 44 1011.8
20260505004355 18 224 0.0 3.2 0.00 0.00 0.00 43 1011.8
20260505003853 18 154 1.6 1.6 0.00 0.00 0.00 43 1011.7
20260505003350 18 172 0.0 1.6 0.00 0.00 0.00 42 1011.7
20260505002846 18 155 0.0 1.6 0.00 0.00 0.00 43 1011.6
20260505002343 18 176 0.0 1.6 0.00 0.00 0.00 42 1011.8
20260505001841 18 151 0.0 3.2 0.00 0.00 0.00 40 1011.5
20260505001338 19 150 0.0 3.2 0.00 0.00 0.00 41 1011.5
20260505000835 19 174 1.6 1.6 0.00 0.00 0.00 40 1011.4
20260505000333 20 135 0.0 3.2 0.00 0.00 0.00 40 1011.7
20260504235829 20 188 0.0 1.6 0.00 0.00 0.00 40 1011.4
20260504235327 20 129 0.0 1.6 0.00 0.00 0.00 40 1011.3
20260504234823 20 212 0.0 1.6 0.00 0.00 0.00 38 1011.3
20260504234321 20 146 0.0 3.2 0.00 0.00 0.00 37 1011.5
20260504233817 21 248 3.2 3.2 0.00 0.00 0.00 37 1011.3
20260504233313 21 279 1.6 3.2 0.00 0.00 0.00 36 1011.3
20260504232810 21 215 1.6 4.8 0.00 0.00 0.00 35 1011.3
20260504232307 21 172 3.2 6.4 0.00 0.00 0.00 34 1011.4
20260504231804 21 46 0.0 4.8 0.00 0.00 0.00 33 1011.2
20260504231300 21 226 3.2 9.7 0.00 0.00 0.00 33 1011.3
20260504230756 22 269 1.6 3.2 0.00 0.00 0.00 33 1011.2
20260504230254 22 233 4.8 8.0 0.00 0.00 0.00 32 1011.1
20260504225753 22 239 3.2 6.4 0.00 0.00 0.00 32 1011.5
20260504225249 22 256 3.2 9.7 0.00 0.00 0.00 31 1011.1
20260504224746 22 301 1.6 6.4 0.00 0.00 0.00 31 1011.1
20260504224243 22 207 3.2 6.4 0.00 0.00 0.00 32 1011.2
20260504223740 22 234 3.2 12.9 0.00 0.00 0.00 30 1011.2
20260504223235 22 246 4.8 9.7 0.00 0.00 0.00 31 1011.2
20260504222732 22 217 3.2 11.3 0.00 0.00 0.00 29 1011.3
20260504222229 22 220 3.2 9.7 0.00 0.00 0.00 30 1011.2
20260504221726 23 265 8.0 8.0 0.00 0.00 0.00 29 1011.3
20260504221218 23 254 8.0 16.1 0.00 0.00 0.00 28 1011.4
20260504220714 24 237 6.4 14.5 0.00 0.00 0.00 27 1011.3
20260504220212 24 260 3.2 8.0 0.00 0.00 0.00 28 1011.4
20260504215708 25 251 3.2 8.0 0.00 0.00 0.00 27 1011.3
20260504215206 25 265 4.8 6.4 0.00 0.00 0.00 27 1011.4
20260504214701 25 283 4.8 8.0 0.00 0.00 0.00 28 1011.4
20260504214158 24 248 3.2 4.8 0.00 0.00 0.00 28 1011.4
20260504213655 24 217 0.0 14.5 0.00 0.00 0.00 29 1011.3
20260504213151 25 241 3.2 17.7 0.00 0.00 0.00 28 1011.3
20260504212648 24 262 6.4 11.3 0.00 0.00 0.00 27 1011.4
20260504212144 25 251 9.7 17.7 0.00 0.00 0.00 27 1011.5
20260504211642 25 302 6.4 8.0 0.00 0.00 0.00 27 1011.4
20260504211138 25 235 3.2 4.8 0.00 0.00 0.00 27 1011.4
20260504210636 24 232 8.0 8.0 0.00 0.00 0.00 27 1011.5
20260504210132 24 245 8.0 8.0 0.00 0.00 0.00 27 1011.3
20260504205630 24 238 8.0 9.7 0.00 0.00 0.00 27 1011.4
20260504205127 24 235 12.9 16.1 0.00 0.00 0.00 27 1011.4
20260504204626 24 250 3.2 9.7 0.00 0.00 0.00 28 1011.5
20260504204124 23 238 4.8 12.9 0.00 0.00 0.00 28 1011.4
20260504203622 23 186 6.4 9.7 0.00 0.00 0.00 27 1011.4
20260504203119 23 201 4.8 11.3 0.00 0.00 0.00 28 1011.1
20260504202614 23 160 4.8 17.7 0.00 0.00 0.00 28 1011.4
20260504202111 24 269 3.2 11.3 0.00 0.00 0.00 28 1011.4
20260504201608 24 181 6.4 9.7 0.00 0.00 0.00 27 1011.5
20260504201106 23 251 8.0 9.7 0.00 0.00 0.00 27 1011.6
20260504200602 23 266 8.0 11.3 0.00 0.00 0.00 27 1011.4
20260504200059 23 221 8.0 11.3 0.00 0.00 0.00 27 1011.4
20260504195555 23 213 6.4 9.7 0.00 0.00 0.00 27 1011.4
20260504195051 23 276 8.0 9.7 0.00 0.00 0.00 28 1011.6
20260504194548 23 218 8.0 9.7 0.00 0.00 0.00 28 1011.8
20260504194043 23 226 1.6 14.5 0.00 0.00 0.00 28 1011.9
20260504193540 23 268 4.8 14.5 0.00 0.00 0.00 28 1011.9
20260504193039 23 282 4.8 9.7 0.00 0.00 0.00 29 1012.1
20260504192537 22 247 8.0 12.9 0.00 0.00 0.00 29 1012.0
20260504192035 22 251 4.8 8.0 0.00 0.00 0.00 30 1012.0
20260504191533 22 214 1.6 9.7 0.00 0.00 0.00 29 1012.2
20260504191028 22 219 3.2 9.7 0.00 0.00 0.00 33 1012.2
20260504190525 22 211 8.0 12.9 0.00 0.00 0.00 29 1012.2
20260504190021 22 231 8.0 8.0 0.00 0.00 0.00 28 1012.3
20260504185518 22 286 8.0 11.3 0.00 0.00 0.00 30 1012.3
20260504185015 22 311 1.6 8.0 0.00 0.00 0.00 31 1012.5
20260504184510 22 252 4.8 12.9 0.00 0.00 0.00 30 1012.6
20260504184006 22 234 8.0 9.7 0.00 0.00 0.00 29 1012.6
20260504183503 22 245 4.8 9.7 0.00 0.00 0.00 29 1012.8
20260504183002 22 268 3.2 11.3 0.00 0.00 0.00 30 1013.0
20260504182458 22 210 1.6 9.7 0.00 0.00 0.00 30 1012.8
20260504181955 22 235 6.4 11.3 0.00 0.00 0.00 30 1012.8
20260504181452 22 211 3.2 9.7 0.00 0.00 0.00 29 1013.0
20260504180951 21 287 4.8 9.7 0.00 0.00 0.00 30 1013.0
20260504180449 21 282 4.8 9.7 0.00 0.00 0.00 30 1013.2
20260504175947 22 254 4.8 8.0 0.00 0.00 0.00 29 1013.2
20260504175444 22 248 4.8 9.7 0.00 0.00 0.00 29 1013.4
20260504174942 22 219 4.8 8.0 0.00 0.00 0.00 31 1013.4
20260504174439 21 250 1.6 6.4 0.00 0.00 0.00 32 1013.3
20260504173936 21 222 3.2 11.3 0.00 0.00 0.00 29 1013.5
20260504173432 21 233 4.8 4.8 0.00 0.00 0.00 32 1013.6
20260504172930 21 242 6.4 14.5 0.00 0.00 0.00 29 1013.7
20260504172426 21 260 8.0 8.0 0.00 0.00 0.00 30 1013.7
20260504171923 21 268 3.2 9.7 0.00 0.00 0.00 29 1013.8
20260504171420 21 231 3.2 9.7 0.00 0.00 0.00 31 1013.9
20260504170917 21 334 4.8 12.9 0.00 0.00 0.00 29 1014.0
20260504170413 21 333 1.6 9.7 0.00 0.00 0.00 30 1013.9
20260504160332 20 245 4.8 11.3 0.00 0.00 0.00 33 1014.8
20260504150756 18 169 3.2 9.7 0.00 0.00 0.00 40 1015.1
20260504150253 18 253 8.0 8.0 0.00 0.00 0.00 38 1015.4
20260504141223 17 253 3.2 4.8 0.00 0.00 0.00 48 1015.4
20260504140720 17 258 3.2 8.0 0.00 0.00 0.00 46 1015.6
20260504140215 17 263 4.8 4.8 0.00 0.00 0.00 48 1015.6
20260504130643 15 154 0.0 8.0 0.00 0.00 0.00 57 1016.1
20260504130139 15 268 3.2 9.7 0.00 0.00 0.00 56 1016.0
20260504120104 12 278 0.0 4.8 0.00 0.00 0.00 69 1016.3
20260504110531 9 152 3.2 3.2 0.00 0.00 0.00 78 1016.9